Regional Weather Roundup
Issued by NWS

Home | Current Version | Previous Version | Text Only | Print | Product List | Glossary Off
Versions: 1 2 3 4 5 6 7 8 9 10 11 12 13 14 15 16 17 18 19 20 21 22 23 24 25 26 27 28 29 30 31 32 33 34 35 36 37 38 39 40 41 42 43 44 45 46 47 48 49 50

000
ASUS43 KOAX 240410
RWRNE

WEATHER ROUNDUP FOR NEBRASKA
NATIONAL WEATHER SERVICE OMAHA NE
1100 PM CDT TUE MAY 23 2017

NOTES: SATELLITE DATA IS BEING USED TO AUGMENT CLOUD COVER ABOVE
       12000 FEET.
       "FAIR" INDICATES FEW OR NO CLOUDS BELOW 12,000 FEET WITH NO
       SIGNIFICANT WEATHER AND/OR OBSTRUCTIONS TO VISIBILITY.

  * THESE STATIONS DO NOT REPORT WEATHER SUCH AS RAIN...SNOW OR FOG.

NEZ001>004-019>022-054>056-240500-
NEBRASKA PANHANDLE

CITY           SKY/WX    TMP DP  RH WIND       PRES   REMARKS
SCOTTSBLUFF    CLOUDY    47  38  71 CALM      30.04S
ALLIANCE       CLEAR     42  36  79 NE6       30.02F
CHADRON        CLEAR     45  38  76 CALM      30.02S
GORDON         FAIR      42  36  80 E9        30.01F
KIMBALL        CLOUDY    42  35  76 E5        30.07S
SIDNEY         CLEAR     41  35  79 N6        30.05S
$$

NEZ057>060-069>072-079>082-240500-
SOUTHWEST NEBRASKA

CITY           SKY/WX    TMP DP  RH WIND       PRES   REMARKS
NORTH PLATTE   CLEAR     48  38  68 N12       30.00R
IMPERIAL       CLEAR     43  37  79 N7        30.02R
LEXINGTON      CLEAR     44  39  83 NW6       29.97S
MCCOOK         CLEAR     46  37  71 N10       29.99S
OGALLALA       CLEAR     45  37  71 N3        30.02S
$$

NEZ005>010-023>029-035>040-094-240500-
NORTH CENTRAL NEBRASKA

CITY           SKY/WX    TMP DP  RH WIND       PRES   REMARKS
VALENTINE      CLEAR     40  34  79 NW5       30.00S
AINSWORTH      CLOUDY    49  42  78 NW9       29.99S
BROKEN BOW     CLOUDY    50  42  74 N14       29.97R
O`NEILL        CLOUDY    50  43  77 NW9       29.96S
ORD            CLOUDY    50  40  68 N15       29.95R
THEDFORD       CLEAR     43  38  83 NW5       30.02R
$$

NEZ041-046>049-061>064-073>077-083>087-240500-
SOUTH CENTRAL NEBRASKA

CITY           SKY/WX    TMP DP  RH WIND       PRES   REMARKS
GRAND ISLAND   CLOUDY    50  43  77 N14       29.93S
AURORA         CLOUDY    50  44  79 N16       29.92S
HASTINGS       CLOUDY    51  42  71 N14       29.94S
HEBRON         CLOUDY    53  44  72 N13       29.90S
HOLDREGE       MOCLDY    47  40  78 NW5       29.96S
KEARNEY *      CLEAR     48  37  66 N13       29.95S
YORK           CLOUDY    50  45  81 NW12      29.91R
$$

NEZ011>018-030>034-042>045-240500-
NORTHEAST NEBRASKA

CITY           SKY/WX    TMP DP  RH WIND       PRES   REMARKS
NORFOLK        MOCLDY    49  44  83 NW20G25   29.89S
ALBION         CLOUDY    51  44  79 N8        29.92S
BLAIR          CLOUDY    51  48  89 NW7       29.83F
FREMONT        CLOUDY    52  46  81 NW15      29.86S
TEKAMAH        MOCLDY    51  47  86 NW14      29.84S
WAYNE          CLOUDY    51  50  99 N14       29.88S
$$

NEZ050>053-065>068-078-088>093-240500-
SOUTHEAST NEBRASKA

CITY           SKY/WX    TMP DP  RH WIND       PRES   REMARKS
LINCOLN        CLOUDY    54  46  74 NW16G23   29.88S
OMAHA EPPLEY   CLOUDY    50  45  83 NW10      29.83S
BEATRICE       CLOUDY    52  46  78 N13       29.87S
FALLS CITY     CLOUDY    51  47  86 NW10      29.82S
NEBRASKA CITY  CLOUDY    53  47  80 NW10      29.83S
PLATTSMOUTH    CLOUDY    52  45  78 NW10      29.83S
$$

NEZ044-045-051>053-067-240500-
OMAHA AREA

CITY           SKY/WX    TMP DP  RH WIND       PRES   REMARKS
OMAHA EPPLEY   CLOUDY    50  45  83 NW10      29.83S
BLAIR          CLOUDY    51  48  89 NW7       29.83F
FREMONT        CLOUDY    52  46  81 NW15      29.86S
MILLARD        CLOUDY    54  49  82 NW9       29.84S
OFFUTT AFB     CLOUDY    51  47  88 NW8       29.82S
PLATTSMOUTH    CLOUDY    52  45  78 NW10      29.83S
WAHOO          CLOUDY    51  46  82 NW14G21   29.85F
$$




USA.gov is the U.S. government's official web portal to all federal, state and local government web resources and services.